Presure
148 181 177 185 193 190 180 190 202 209 203 193 164 181 223 216 208 213 199 211 185 211 220 196 216 180 200 171 207 160 196 216 166 241 233 198 214 198
181 184 189 195 187 174 194 204 212 204 163 184 195 199 208 206 205 209 193 211 210 197 207 198 192 206 188 199 203 171 217 130 210 171 222 211 200 200
186 188 193 194 187 191 203 197 196 206 217 217 218 213 212 185 207 207 194 193 200 210 196 200 204 197 215 201 197 187 206 210 178 170 213 197 209 201
192 195 199 188 200 183 208 225 189 232 196 211 205 206 204 197 182 199 179 195 190 197 194 192 198 192 198 202 207 196 183 193 192 223 196 199 221 212
188 172 206 202 226 236 230 228 191 205 202 190 211 206 194 199 186 201 177 196 191 204 205 212 194 210 217 190 202 215 158 174 174 167 187 211 218 184
208 228 244 218 235 222 195 213 190 212 213 200 207 185 189 203 189 200 189 211 196 218 226 202 233 234 216 226 225 216 227 193 193 198 230 200 228 181
219 234 227 214 214 178 211 211 206 202 205 179 185 199 199 213 196 225 238 191 235 240 245 224 243 240 249 245 248 242 243 242 192 187 204 167 182 148
206 207 183 199 200 188 170 191 187 201 175 216 224 215 197 203 239 255 261 257 263 254 243 275 254 266 267 265 267 264 261 257 249 194 235 229 204 172
174 193 216 217 197 197 182 208 179 180 212 214 230 228 239 244 266 270 252 271 270 314 351 361 351 290 292 287 288 292 297 288 279 264 251 179 249 208
208 207 213 209 206 202 194 182 231 214 204 236 266 267 282 295 292 290 361 461 434 464 469 480 481 502 510 473 430 399 354 310 308 291 275 244 259 187
176 196 198 209 177 229 241 222 224 263 274 271 291 303 278 306 430 454 442 462 469 462 448 430 443 446 449 482 471 456 386 377 359 306 296 282 277 250
214 212 187 227 205 204 205 205 279 269 272 310 326 340 414 423 433 425 431 434 437 453 436 435 419 409 425 433 453 448 450 400 374 337 324 290 279 270
210 178 202 208 205 269 273 253 297 327 328 352 374 406 411 405 408 407 423 448 451 448 441 428 427 406 400 438 435 428 428 426 358 364 325 313 285 266
203 253 271 275 277 277 297 325 346 340 404 409 405 405 409 420 426 437 436 436 486 428 454 420 411 394 388 423 423 416 412 411 407 358 365 316 309 274
274 278 281 295 332 276 342 404 423 407 397 409 415 416 413 413 426 434 422 408 412 403 436 400 408 389 380 410 403 402 403 396 397 402 340 347 310 297
295 324 353 349 367 441 425 410 399 395 414 414 409 408 404 407 416 417 399 394 449 454 446 390 404 385 371 380 398 395 389 388 385 389 371 339 349 300
361 418 451 439 435 416 402 393 392 406 399 395 399 399 395 400 409 407 388 378 428 431 424 408 399 382 365 371 389 388 386 382 377 373 380 372 337 327
471 454 439 426 410 399 393 392 405 380 380 384 388 381 392 393 401 398 382 372 411 412 407 402 394 377 362 361 395 384 380 377 373 371 373 375 373 336
430 423 436 420 407 401 401 408 369 375 376 379 375 378 390 391 394 393 377 371 368 401 395 392 387 372 358 351 394 380 375 375 370 365 364 366 365 369
428 415 407 442 428 412 369 371 372 371 372 369 366 381 387 384 382 392 383 361 357 394 387 380 377 375 359 351 391 383 374 366 362 364 359 360 361 352
426 413 403 390 377 368 366 372 367 368 369 365 373 386 382 380 383 382 388 384 353 384 386 377 370 370 357 349 381 384 368 358 357 353 356 352 353 353
400 392 381 377 374 377 380 374 373 375 371 373 384 386 386 388 386 389 390 383 392 343 389 379 367 365 356 349 382 382 367 359 353 349 348 348 349 351
406 397 392 392 396 387 384 384 380 378 383 400 393 388 384 392 399 397 395 396 397 394 408 386 374 358 354 346 384 380 362 358 350 349 346 340 341 338
Wind_Speed
86 92 90 98 103 100 94 102 103 98 98 97 83 88 91 92 93 88 81 88 68 84 81 60 79 53 58 71 60 65 45 53 45 47 40 40 39 38
98 101 106 108 102 95 107 107 105 103 83 98 101 95 96 98 95 93 85 90 87 82 87 72 57 82 56 70 64 52 69 51 51 51 51 47 45 42
108 110 111 110 107 110 112 111 110 104 93 98 95 96 94 91 96 97 86 83 89 95 83 86 89 73 91 79 71 61 59 73 66 55 66 50 52 52
113 115 115 110 116 109 114 105 107 96 110 101 103 101 102 104 83 102 76 100 86 101 92 83 93 78 90 92 92 69 58 67 62 74 54 57 51 56
111 103 119 119 109 104 105 101 114 111 99 109 102 105 100 107 93 104 80 108 99 109 109 112 91 111 108 74 93 99 81 88 81 59 67 65 65 60
118 106 98 111 100 104 118 111 100 111 112 113 111 87 98 115 99 112 102 121 114 123 121 109 123 118 112 115 116 108 110 95 76 81 86 69 75 60
110 100 103 108 110 100 110 110 116 118 119 83 94 110 110 128 116 132 132 92 131 134 133 124 130 126 128 127 124 120 118 115 93 90 79 77 76 62
109 111 101 116 119 123 84 121 105 124 82 129 130 132 123 129 135 141 142 138 137 138 136 143 136 140 139 137 136 127 123 120 116 100 102 92 87 78
110 120 110 112 125 129 94 111 95 102 136 135 137 127 140 141 147 144 139 141 138 143 134 126 129 138 138 137 135 130 129 129 124 118 112 89 99 91
111 113 118 109 128 131 115 104 130 132 140 141 150 148 151 148 144 146 136 73 84 69 73 74 72 58 51 78 104 107 115 118 120 122 117 112 108 88
97 130 128 128 97 131 132 131 140 145 149 148 151 151 140 148 84 72 77 69 67 63 65 67 64 66 64 45 54 76 104 109 117 111 111 111 107 96
120 126 112 133 141 142 139 137 147 140 147 153 152 147 90 73 67 71 70 69 69 61 56 57 57 61 55 52 42 46 54 94 105 113 112 108 106 101
130 93 134 147 146 143 144 137 155 151 147 142 114 76 69 72 70 70 67 60 58 52 48 49 44 51 53 38 40 43 46 55 98 103 111 109 106 99
141 141 140 144 146 147 152 149 143 139 80 72 72 69 66 60 56 54 53 52 42 46 35 43 39 44 47 37 36 37 42 46 61 95 100 108 109 105
141 145 145 150 147 133 139 85 65 72 76 65 60 56 55 53 48 45 45 44 43 43 33 40 36 40 43 35 34 35 39 44 47 55 100 100 109 111
146 146 138 137 127 63 62 67 70 70 58 54 53 51 51 48 42 40 41 40 31 29 30 39 35 37 40 36 34 35 39 41 44 48 78 97 97 112
137 99 67 64 59 62 63 66 65 57 55 54 51 49 48 43 39 38 37 37 28 25 28 32 32 35 37 34 34 36 40 40 42 46 51 72 97 106
66 64 62 58 60 62 61 60 55 57 56 52 49 50 45 40 37 35 34 34 26 24 26 29 30 33 36 35 37 37 38 40 41 43 45 53 65 95
68 64 57 57 57 57 56 54 56 55 53 50 50 48 43 38 34 33 32 31 30 24 26 29 30 33 35 35 37 37 39 40 40 40 43 47 58 62
59 59 57 51 52 52 54 54 53 52 51 50 50 45 41 38 35 31 30 30 30 26 27 29 30 31 33 33 38 40 40 40 40 40 42 44 51 64
50 50 50 49 50 52 52 51 51 50 49 49 47 42 41 40 37 35 31 29 29 27 28 30 30 30 32 33 36 40 41 39 39 38 39 42 45 53
46 46 47 48 48 47 47 47 47 46 46 45 42 40 40 39 38 36 35 32 29 29 30 31 30 30 31 32 36 40 42 40 40 40 40 41 41 44
40 41 42 41 41 41 42 42 41 42 41 37 38 38 38 38 38 37 36 35 32 28 27 31 31 32 32 32 37 41 42 42 41 41 40 40 41 45
Wind_Direction
290 296 294 299 299 298 295 297 298 296 298 298 295 297 297 299 301 300 298 304 292 302 300 296 300 270 297 282 301 284 259 289 270 294 275 265 274 261
295 296 296 296 295 294 296 296 296 297 293 297 297 295 296 297 298 298 295 298 297 302 299 299 289 298 271 295 296 258 295 264 276 268 289 264 263 261
294 295 293 295 295 295 296 296 297 294 291 292 290 292 292 292 293 294 297 297 294 290 291 293 290 284 288 288 286 266 281 289 274 263 279 261 263 258
291 291 293 293 294 293 294 289 294 288 295 291 292 292 294 296 296 294 290 297 295 294 293 289 291 271 287 287 286 270 248 277 254 277 254 260 266 255
291 290 293 292 290 287 288 288 295 291 291 294 289 290 293 292 299 289 287 294 296 293 292 289 287 288 284 270 282 281 267 266 263 268 246 263 268 251
290 288 285 289 288 287 293 288 293 292 291 293 294 293 297 290 296 293 294 289 290 287 283 287 278 276 280 275 275 277 275 264 262 267 268 247 265 257
287 286 286 288 286 296 290 289 289 291 292 292 299 286 286 290 297 291 287 288 283 282 280 284 277 276 272 269 268 267 268 268 268 257 259 263 258 245
286 287 290 287 286 294 296 295 300 292 288 288 288 289 296 294 287 287 286 283 281 278 281 276 276 272 271 271 270 268 264 262 262 255 261 257 257 259
295 287 287 289 290 290 291 291 298 296 292 296 291 291 289 289 288 286 285 282 281 279 275 272 269 270 268 267 265 263 260 258 258 257 257 253 255 247
285 286 288 290 287 290 294 300 296 295 294 293 291 290 291 290 288 286 288 280 281 271 269 268 269 271 265 259 252 245 248 252 250 250 250 248 252 241
296 291 291 290 289 296 296 295 293 293 293 292 293 293 288 291 290 286 288 284 281 276 271 268 266 264 264 257 259 258 241 239 238 243 243 244 244 246
291 289 301 294 293 293 297 298 293 293 293 294 294 296 294 291 288 287 285 283 281 281 277 271 265 263 263 260 251 251 254 242 235 233 237 238 238 238
295 293 295 290 295 294 295 294 294 294 295 297 296 294 292 291 289 287 284 283 282 281 274 270 264 259 260 247 241 244 244 244 230 231 229 232 233 234
292 294 294 295 294 295 295 294 296 297 295 295 295 294 292 291 290 287 285 283 280 275 264 265 259 255 255 246 231 232 234 235 240 226 229 225 226 229
297 295 295 294 293 295 295 294 293 294 295 295 295 295 295 294 295 290 286 282 278 272 256 260 253 250 251 239 233 230 227 231 232 239 221 226 222 222
294 293 295 295 294 293 291 292 293 294 296 297 297 297 296 298 298 291 285 283 281 265 246 256 248 245 247 245 235 226 225 226 227 227 230 221 224 219
295 296 297 295 292 290 290 291 292 295 295 296 297 296 297 300 299 292 285 281 281 264 248 248 243 241 243 242 228 222 219 218 218 223 226 228 221 220
295 295 294 292 290 289 290 292 294 293 295 296 296 296 298 299 298 293 284 281 281 266 250 245 239 237 239 239 222 219 215 215 215 217 220 226 227 222
295 294 291 289 289 289 291 291 293 293 294 294 294 295 296 296 295 289 282 280 275 265 251 245 236 233 234 235 221 217 213 211 212 213 212 218 224 224
290 291 292 285 286 288 292 292 292 292 293 292 293 293 293 293 292 288 279 275 273 260 249 242 239 231 231 232 217 214 207 207 209 207 210 213 219 221
290 290 292 292 292 291 291 291 291 291 291 291 291 290 290 289 287 283 278 270 266 261 249 239 234 230 227 229 219 213 206 204 205 205 205 208 213 219
295 294 293 292 291 291 289 290 290 290 290 290 289 288 287 286 284 281 276 269 266 257 247 239 230 225 222 223 215 210 203 201 202 203 203 205 208 213
299 296 295 294 293 292 291 291 291 291 290 289 288 287 287 283 279 275 272 269 265 255 246 236 226 220 219 217 213 207 203 198 197 199 198 201 205 211